Weather History for KEVV - October, 2013

Change the Weather History Date:

Monday, October 14, 2013

  Actual Average Record
Temperature  
Mean Temperature 60 °F 58 °F  
Max Temperature 72 °F 71 °F 90 °F (1899)
Min Temperature 48 °F 46 °F 29 °F (1979)
Degree Days  
Heating Degree Days 5 8  
Month to date heating degree days 28 87  
Since 1 July heating degree days 38 134  
Cooling Degree Days 0 1  
Month to date cooling degree days 55 21  
Year to date cooling degree days 1462 1387  
Growing Degree Days 10 (Base 50)    
Moisture  
Dew Point 48 °F    
Average Humidity 67    
Maximum Humidity 86    
Minimum Humidity 47    
Precipitation  
Precipitation 0.00 in 0.10 in 1.37 in (1941)
Month to date precipitation 4.27 1.41  
Year to date precipitation 42.41 35.38  
Snow  
Snow 0.00 in 0.00 in 0.00 in (2002)
Month to date snowfall 0.0 0.0  
Since 1 July snowfall 0.0 0.0  
Since 1 September snowfall 0.0 0.0  
Snow Depth 0.00 in    
Sea Level Pressure  
Sea Level Pressure 30.24 in    
Wind  
Wind Speed 5 mph (NE)    
Max Wind Speed 10 mph    
Max Gust Speed 13 mph    
Visibility 10 miles    
Events      
T = Trace of Precipitation, MM = Missing Value Source: NWS Daily Summary

Daily Weather History Graph

Daily Weather History Graph

Search for Another Location

Airport or City:

Trip Planner

Search our weather history database for the weather conditions in past years. The results will help you decide how hot, cold, wet, or windy it might be!

Date:

Astronomy

Oct. 14, 2013 Rise Set
Actual Time 6:57 AM CDT 6:13 PM CDT
Civil Twilight 6:31 AM CDT 6:39 PM CDT
Nautical Twilight 6:00 AM CDT 7:10 PM CDT
Astronomical Twilight 5:30 AM CDT 7:40 PM CDT
Moon 3:39 PM CDT (10/14) 2:18 AM CDT (10/14)
Length of Visible Light 12h 08m
Length of Day
11h 15m
Waxing Gibbous, 79% of the Moon is Illuminated
Oct 14
Waxing Gibbous
Oct 18
Full
Oct 26
Last Quarter
Nov 3
New
Nov 9
First Quarter

Hourly Weather History & Observations

Time (CDT) Temp. Dew Point Humidity Pressure Visibility Wind Dir Wind Speed Gust Speed Precip Events Conditions
12:54 AM 53.1 °F 43.0 °F 69% 30.30 in 10.0 mi NE 4.6 mph - N/A   Clear
1:54 AM 53.1 °F 42.1 °F 66% 30.31 in 10.0 mi NE 5.8 mph - N/A   Clear
2:54 AM 51.1 °F 43.0 °F 74% 30.31 in 10.0 mi NE 5.8 mph - N/A   Clear
3:54 AM 51.1 °F 43.0 °F 74% 30.31 in 10.0 mi NNE 8.1 mph - N/A   Clear
4:54 AM 48.9 °F 43.0 °F 80% 30.31 in 10.0 mi NE 5.8 mph - N/A   Clear
5:54 AM 48.0 °F 42.1 °F 80% 30.30 in 10.0 mi NNE 4.6 mph - N/A   Clear
6:54 AM 48.9 °F 42.1 °F 77% 30.32 in 10.0 mi NNE 5.8 mph - N/A   Clear
7:54 AM 50.0 °F 44.1 °F 80% 30.32 in 10.0 mi NNE 4.6 mph - N/A   Clear
8:54 AM 55.0 °F 45.0 °F 69% 30.32 in 10.0 mi NE 5.8 mph - N/A   Clear
9:54 AM 59.0 °F 46.9 °F 64% 30.30 in 10.0 mi NE 6.9 mph - N/A   Clear
10:54 AM 63.0 °F 46.0 °F 54% 30.29 in 10.0 mi ENE 6.9 mph - N/A   Clear
11:54 AM 66.0 °F 46.9 °F 50% 30.27 in 10.0 mi East 6.9 mph - N/A   Clear
12:54 PM 69.1 °F 48.9 °F 49% 30.24 in 10.0 mi East 4.6 mph - N/A   Clear
1:54 PM 69.1 °F 50.0 °F 51% 30.20 in 10.0 mi East 5.8 mph - N/A   Clear
2:54 PM 71.1 °F 51.1 °F 49% 30.18 in 10.0 mi East 5.8 mph - N/A   Clear
3:54 PM 71.1 °F 51.1 °F 49% 30.17 in 10.0 mi East 5.8 mph - N/A   Clear
4:54 PM 70.0 °F 52.0 °F 53% 30.17 in 10.0 mi East 5.8 mph - N/A   Clear
5:54 PM 66.9 °F 53.1 °F 61% 30.17 in 10.0 mi ENE 3.5 mph - N/A   Clear
6:54 PM 63.0 °F 53.1 °F 70% 30.16 in 10.0 mi Calm Calm - N/A   Clear
7:54 PM 62.1 °F 53.1 °F 72% 30.16 in 10.0 mi Calm Calm - N/A   Clear
8:54 PM 59.0 °F 53.1 °F 81% 30.17 in 10.0 mi NE 3.5 mph - N/A   Clear
9:54 PM 59.0 °F 53.1 °F 81% 30.16 in 10.0 mi NE 3.5 mph - N/A   Clear
10:54 PM 57.9 °F 53.1 °F 84% 30.14 in 10.0 mi ENE 4.6 mph - N/A   Clear
11:54 PM 57.0 °F 53.1 °F 87% 30.12 in 10.0 mi ENE 3.5 mph - N/A   Clear